GPS BIIF-7

Last updated on Tue Jul 08 2025 00:02:32 GMT+0000 (Coordinated Universal Time)

1 40105U 14045A 25187.53782318 -.00000045 00000+0 00000+0 0 9992 2 40105 55.1285 102.2531 0030176 115.9112 244.4025 2.00562557 79143
UTC large
Height (km)
Speed (km/s)
/
Latitude / Longitude
Inclination (degrees)
Orbital Period (minutes)
Azimuth
Elevation
Range (km)
Doppler Factor

Next 0 passes for location: London (51.5072 / 0.1276)

Sorry there are no passes over London.